星链-4602 (STARLINK-4602 )

导读 | 豆包AI

STARLINK-4602是美国SpaceX星链星座的通信卫星,于2022年8月28日发射。作为低轨互联网星座成员,它运行于近地轨道,依托Ku/Ka波段通信与星间链路技术,为全球偏远地区、移动场景提供高速宽带互联网接入支持,服务用户流媒体、视频通话、在线联网等需求。星链卫星具备自主避撞能力,寿命末期会主动离轨,再入大气层烧毁,减少空间垃圾。卫星重约297千克,由猎鹰9火箭批量发射入轨。

基本信息
目录编号:
53629
目录名称:
STARLINK-4602
国际标识:
2022-104AT
轨道中心:
EARTH
卫星名称:
星链-4602
卫星全名:
星链-4602 (STARLINK-4602 )
卫星状态:
在轨 (已飞行1341 天)
发射日期:
2022-08-28 UTC
国别 :
美国 (US)
星等 :
--
轨道信息
数据来源 国际轨道数据 AOE轨道数据
星历时间 2026-04-30T09:16:20+0800
16小时前
查看轨道信息
2026-04-28T16:00:00+0800
2天前
查看轨道信息
半长轴 6917.884km 6917.916km
偏心率 0.0001424 0.0001676
轨道倾角 53.219° 53.216°
近地点辐角 86.163° 78.668°
升交点赤经 3.220° 10.941°
平近点角 273.952° 295.415°
近地点 538.761km 538.619km
远地点 540.733km 540.939km
周期 95.438分钟 95.438分钟
每日圈数 15.088391 15.088286
详细信息
固有亮度:
5
最大亮度:
2.5
卫星平台:
Starlink v1.5
覆盖范围:
全球
运营商:
太空探索技术公司
运营商所在国:
美国
制造商(研发单位):
太空探索技术公司
制造商所在国:
美国
使用方式:
暂无
卫星简介
星链(Starlink)计划是由太空探索技术公司(SpaceX)提出的一个巨型低轨卫星互联网星座项目,计划在2019年至2024年间在太空搭建由约1.2万颗卫星组成的“星链”网络,其中1584颗将部署在地球上空550千米处的近地轨道,并从2020年开始工作。该卫星仍在工作。
2D轨道图
3D轨道图
轨道高度分析图
轨道倾角分析图
轨道综合分析图
查看轨道综合分析图